Weather History for KAEJ - April, 2014

Change the Weather History Date:

Saturday, April 5, 2014

  Actual Average (KLXV) Record (KLXV)
Temperature  
Mean Temperature 32 °F -  
Max Temperature 44 °F 41 °F 56 °F (1991)
Min Temperature 19 °F 16 °F -9 °F (1983)
Degree Days  
Heating Degree Days 34 37  
Month to date heating degree days 186  
Since 1 July heating degree days 9169  
Cooling Degree Days 0 0  
Month to date cooling degree days 0  
Year to date cooling degree days 0  
Moisture  
Dew Point 21 °F    
Average Humidity 71    
Maximum Humidity 96    
Minimum Humidity 28    
Precipitation  
Precipitation 0.00 in 0.03 in 0.40 in (2007)
Month to date precipitation 0.16  
Year to date precipitation 2.42  
Sea Level Pressure  
Sea Level Pressure 29.94 in    
Wind  
Wind Speed 3 mph (West)    
Max Wind Speed 21 mph    
Max Gust Speed 25 mph    
Visibility 8 miles    
Events Snow , Thunderstorm    
T = Trace of Precipitation, MM = Missing Value Source: NWS Daily Summary

Daily Weather History Graph

Daily Weather History Graph

Search for Another Location

Airport or City:

Trip Planner

Search our weather history database for the weather conditions in past years. The results will help you decide how hot, cold, wet, or windy it might be!

Date:

Astronomy

Apr. 05, 2014 Rise Set
Actual Time 6:42 AM MDT 7:31 PM MDT
Civil Twilight 6:15 AM MDT 7:58 PM MDT
Nautical Twilight 5:44 AM MDT 8:31 PM MDT
Astronomical Twilight 5:11 AM MDT 9:04 PM MDT
Moon 10:55 AM MDT (4/5) 12:42 AM MDT (4/5)
Length of Visible Light 13h 43m
Length of Day
12h 49m
Waxing Crescent, 35% of the Moon is Illuminated
Apr 5
Waxing Crescent
Apr 7
First Quarter
Apr 15
Full
Apr 22
Last Quarter
Apr 29
New

Hourly Weather History & Observations

Time (MDT) Temp. Windchill Dew Point Humidity Pressure Visibility Wind Dir Wind Speed Gust Speed Precip Events Conditions
12:15 AM 27.3 °F - 19.4 °F 72% 29.99 in 10.0 mi Calm Calm - N/A   Scattered Clouds
12:35 AM 25.9 °F - 18.3 °F 73% 29.99 in 10.0 mi Calm Calm - N/A   Clear
12:55 AM 26.1 °F - 18.5 °F 73% 29.99 in 10.0 mi Calm Calm - N/A   Clear
1:15 AM 23.4 °F - 17.4 °F 78% 29.99 in 10.0 mi Calm Calm - N/A   Clear
1:35 AM 22.5 °F 17.8 °F 17.2 °F 80% 29.99 in 10.0 mi West 3.5 mph - N/A   Scattered Clouds
1:55 AM 22.6 °F 15.3 °F 17.2 °F 80% 29.99 in 10.0 mi West 5.8 mph - N/A   Scattered Clouds
2:15 AM 21.7 °F 15.5 °F 16.7 °F 81% 29.98 in 10.0 mi WNW 4.6 mph - N/A   Clear
2:35 AM 21.2 °F 12.6 °F 16.9 °F 83% 29.97 in 10.0 mi WNW 6.9 mph - N/A   Clear
2:55 AM 23.0 °F 17.0 °F 17.2 °F 79% 29.96 in 10.0 mi WNW 4.6 mph - N/A   Scattered Clouds
3:15 AM 22.5 °F 15.1 °F 16.2 °F 77% 29.96 in 10.0 mi NW 5.8 mph - N/A   Scattered Clouds
3:35 AM 24.6 °F - 17.4 °F 74% 29.96 in 10.0 mi Calm Calm - N/A   Scattered Clouds
3:55 AM 23.4 °F - 16.2 °F 74% 29.95 in 10.0 mi Calm Calm - N/A   Clear
4:15 AM 21.7 °F - 16.2 °F 79% 29.95 in 10.0 mi Calm Calm - N/A   Clear
4:35 AM 20.5 °F 11.7 °F 15.6 °F 81% 29.95 in 10.0 mi NW 6.9 mph - N/A   Clear
4:55 AM 21.4 °F 15.1 °F 16.2 °F 80% 29.94 in 10.0 mi WSW 4.6 mph - N/A   Clear
5:15 AM 21.6 °F 16.8 °F 15.6 °F 78% 29.94 in 10.0 mi WSW 3.5 mph - N/A   Clear
5:35 AM 21.6 °F 16.8 °F 15.8 °F 78% 29.95 in 10.0 mi West 3.5 mph - N/A   Clear
5:55 AM 21.4 °F - 15.6 °F 78% 29.95 in 10.0 mi Calm Calm - N/A   Clear
6:15 AM 20.5 °F 12.8 °F 15.3 °F 80% 29.95 in 10.0 mi WNW 5.8 mph - N/A   Clear
6:35 AM 19.4 °F - 14.9 °F 83% 29.95 in 10.0 mi Calm Calm - N/A   Clear
6:55 AM 23.0 °F - 16.0 °F 74% 29.95 in 10.0 mi Calm Calm - N/A   Mostly Cloudy
7:15 AM 24.6 °F 20.3 °F 16.9 °F 72% 29.95 in 10.0 mi West 3.5 mph - N/A   Mostly Cloudy
7:35 AM 25.2 °F 18.3 °F 17.4 °F 72% 29.95 in 10.0 mi NW 5.8 mph - N/A   Scattered Clouds
7:55 AM 25.0 °F - 19.0 °F 78% 29.95 in 10.0 mi Calm Calm - N/A   Clear
8:15 AM 27.5 °F - 18.5 °F 69% 29.95 in 10.0 mi Calm Calm - N/A   Clear
8:35 AM 32.0 °F - 19.9 °F 61% 29.95 in 10.0 mi Calm Calm - N/A   Clear
8:55 AM 32.2 °F - 19.2 °F 59% 29.95 in 10.0 mi Calm Calm - N/A   Scattered Clouds
9:15 AM 34.0 °F - 17.6 °F 51% 29.95 in 10.0 mi Calm Calm - N/A   Clear
9:35 AM 36.5 °F - 16.2 °F 44% 29.95 in 10.0 mi Calm Calm - N/A   Clear
9:55 AM 38.5 °F - 15.4 °F 39% 29.94 in 10.0 mi Calm Calm - N/A   Clear
10:15 AM 39.2 °F - 13.1 °F 34% 29.94 in 10.0 mi Calm Calm - N/A   Scattered Clouds
10:35 AM 40.1 °F - 12.7 °F 33% 29.93 in 10.0 mi Calm Calm - N/A   Mostly Cloudy
10:55 AM 43.0 °F - 14.0 °F 31% 29.92 in 10.0 mi Calm Calm - N/A   Mostly Cloudy
11:15 AM 41.9 °F 39.0 °F 13.3 °F 31% 29.92 in 10.0 mi ESE 4.6 mph - N/A   Mostly Cloudy
11:35 AM 41.5 °F 37.1 °F 13.8 °F 32% 29.91 in 10.0 mi South 6.9 mph - N/A   Mostly Cloudy
11:55 AM 42.8 °F 40.1 °F 11.8 °F 28% 29.90 in 10.0 mi SW 4.6 mph - N/A   Overcast
12:15 PM 42.3 °F 38.6 °F 12.6 °F 30% 29.90 in 10.0 mi North 5.8 mph 21.9 mph N/A   Overcast
12:35 PM 43.0 °F 37.2 °F 14.2 °F 31% 29.89 in 10.0 mi West 10.4 mph - N/A   Overcast
12:55 PM 43.2 °F 36.2 °F 18.5 °F 37% 29.88 in 10.0 mi WSW 13.8 mph - N/A   Overcast
1:15 PM 43.7 °F 38.6 °F 17.2 °F 35% 29.88 in 10.0 mi West 9.2 mph - N/A   Overcast
1:35 PM 43.9 °F 38.8 °F 16.9 °F 34% 29.87 in 10.0 mi West 9.2 mph - N/A   Overcast
1:55 PM 43.7 °F 41.1 °F 15.4 °F 32% 29.87 in 10.0 mi WSW 4.6 mph - N/A   Overcast
2:15 PM 44.4 °F 42.0 °F 16.3 °F 32% 29.86 in 10.0 mi NW 4.6 mph - N/A   Overcast
2:35 PM 43.5 °F 35.0 °F 22.3 °F 43% 29.86 in 10.0 mi NE 20.7 mph 25.3 mph N/A   Overcast
2:55 PM 41.5 °F 33.8 °F 22.6 °F 47% 29.86 in 10.0 mi ENE 15.0 mph - N/A   Overcast
3:15 PM 40.3 °F 34.4 °F 23.5 °F 51% 29.87 in 10.0 mi East 9.2 mph - N/A   Overcast
3:35 PM 38.8 °F 32.6 °F 24.4 °F 56% 29.88 in 10.0 mi WNW 9.2 mph - N/A Thunderstorm Thunderstorm
3:55 PM 33.3 °F 27.9 °F 30.0 °F 88% 29.90 in 1.0 mi WNW 5.8 mph - N/A Snow Light Snow
4:15 PM 32.0 °F 28.7 °F 30.9 °F 96% 29.90 in 0.2 mi NW 3.5 mph - N/A Snow Heavy Snow
4:35 PM 32.0 °F - 30.9 °F 96% 29.90 in 0.5 mi Calm Calm - N/A Snow Snow
4:55 PM 32.2 °F 27.7 °F 31.1 °F 96% 29.91 in 0.5 mi East 4.6 mph - N/A Snow Snow
5:15 PM 32.0 °F 26.4 °F 30.9 °F 96% 29.91 in 3.0 mi SSE 5.8 mph - N/A Snow Light Snow
5:35 PM 32.0 °F 25.6 °F 30.4 °F 94% 29.91 in 5.0 mi South 6.9 mph - N/A Snow Light Snow
5:55 PM 32.0 °F 25.6 °F 30.4 °F 94% 29.91 in 7.0 mi South 6.9 mph - N/A Snow Light Snow
6:15 PM 32.0 °F - 30.2 °F 93% 29.92 in 7.0 mi Calm Calm - N/A   Mostly Cloudy
6:35 PM 32.0 °F - 29.8 °F 92% 29.92 in 10.0 mi Calm Calm - N/A   Mostly Cloudy
6:55 PM 32.0 °F - 30.0 °F 92% 29.93 in 10.0 mi Calm Calm - N/A   Overcast
7:15 PM 32.0 °F - 29.8 °F 92% 29.93 in 7.0 mi Calm Calm - N/A Snow Light Snow
7:35 PM 32.0 °F - 30.0 °F 92% 29.93 in 1.0 mi Calm Calm - N/A Snow Snow
7:55 PM 31.6 °F - 30.2 °F 94% 29.93 in 1.0 mi Calm Calm - N/A Snow Snow
8:15 PM 31.3 °F - 30.0 °F 95% 29.94 in 2.5 mi Calm Calm - N/A Snow Light Snow
8:35 PM 31.1 °F - 30.0 °F 96% 29.95 in 4.0 mi Calm Calm - N/A Snow Light Snow
8:55 PM 31.1 °F - 30.0 °F 96% 29.95 in 2.0 mi Calm Calm - N/A Snow Light Snow
9:15 PM 31.1 °F - 30.0 °F 96% 29.96 in 2.5 mi Calm Calm - N/A Snow Light Snow
9:35 PM 30.9 °F - 29.8 °F 96% 29.96 in 3.0 mi Calm Calm - N/A Snow Light Snow
9:55 PM 30.4 °F - 29.3 °F 96% 29.96 in 4.0 mi Calm Calm - N/A Snow Light Snow
10:15 PM 31.1 °F - 30.0 °F 96% 29.97 in 4.0 mi Calm Calm - N/A Snow Light Snow
10:35 PM 31.1 °F - 29.8 °F 95% 29.96 in 7.0 mi Calm Calm - N/A Snow Light Snow
10:55 PM 30.9 °F 25.2 °F 29.1 °F 93% 29.96 in 10.0 mi NW 5.8 mph - N/A   Overcast
11:15 PM 30.9 °F 23.5 °F 27.9 °F 88% 29.96 in 10.0 mi WNW 8.1 mph - N/A   Overcast
11:35 PM 30.7 °F 26.0 °F 27.5 °F 88% 29.96 in 10.0 mi WNW 4.6 mph - N/A   Overcast
11:55 PM 30.7 °F - 27.5 °F 88% 29.96 in 10.0 mi Calm Calm - N/A Snow Light Snow